This is the latest recevied weather packets stored in our database for station/object KC8BSD. If no packets are shown the sender has not sent any weather packets the latest 10 day(s).
| Time | Temp. | Humidity | Pressure | Rain* | Wind** | Luminosity | Snow |
|---|---|---|---|---|---|---|---|
| 1777766521 | 8.33° C | 49% | 1016.9 hPa | 0 mm | - | 24 W/m² | - |
| 1777766218 | 8.33° C | 49% | 1017 hPa | 0 mm | - | 25 W/m² | - |
| 1777765916 | 8.33° C | 50% | 1017.1 hPa | 0 mm | - | 32 W/m² | - |
| 1777765612 | 8.33° C | 49% | 1017 hPa | 0 mm | - | 33 W/m² | - |
| 1777765309 | 8.89° C | 50% | 1017.1 hPa | 0 mm | - | 31 W/m² | - |
| 1777765004 | 8.89° C | 48% | 1017.1 hPa | 0 mm | - | 38 W/m² | - |
| 1777764696 | 8.89° C | 48% | 1016.9 hPa | 0 mm | - | 46 W/m² | - |
| 1777764392 | 8.33° C | 46% | 1017 hPa | 0 mm | - | 49 W/m² | - |
| 1777764090 | 8.33° C | 48% | 1017.2 hPa | 0 mm | - | 52 W/m² | - |
| 1777763786 | 8.33° C | 47% | 1017.2 hPa | 0 mm | - | 57 W/m² | - |
| 1777763484 | 8.89° C | 48% | 1017.1 hPa | 0 mm | - | 62 W/m² | - |
| 1777763182 | 8.33° C | 48% | 1017.2 hPa | 0 mm | - | 57 W/m² | - |
| 1777762881 | 8.89° C | 46% | 1017.1 hPa | 0 mm | - | 55 W/m² | - |
| 1777762575 | 8.89° C | 46% | 1017.3 hPa | 0 mm | - | 66 W/m² | - |
| 1777762273 | 8.89° C | 45% | 1017.3 hPa | 0 mm | - | 105 W/m² | - |
| 1777761969 | 8.89° C | 46% | 1017.4 hPa | 0 mm | - | 124 W/m² | - |
| 1777761666 | 8.89° C | 46% | 1017.2 hPa | 0 mm | - | 70 W/m² | - |
| 1777761364 | 8.89° C | 46% | 1017.3 hPa | 0 mm | - | 76 W/m² | - |
| 1777761063 | 9.44° C | 46% | 1017.5 hPa | 0 mm | - | 98 W/m² | - |
| 1777760759 | 8.89° C | 46% | 1017.2 hPa | 0 mm | - | 163 W/m² | - |
| 1777760455 | 8.89° C | 46% | 1017.4 hPa | 0 mm | - | 141 W/m² | - |
| 1777760151 | 8.33° C | 46% | 1017.4 hPa | 0 mm | - | 80 W/m² | - |
| 1777759849 | 8.33° C | 46% | 1017.3 hPa | 0 mm | - | 71 W/m² | - |
| 1777759544 | 8.89° C | 45% | 1017.3 hPa | 0 mm | - | 106 W/m² | - |
| 1777759241 | 8.89° C | 45% | 1017.2 hPa | 0 mm | - | 104 W/m² | - |
* Rain latest hour (hover to see other rain measurements)
** Current wind speed in m/s (hover to see current wind gust speed)